Time,TemperatureF,DewpointF,PressureIn,WindDirection,WindDirectionDegrees,WindSpeedMPH,WindSpeedGustMPH,Humidity,HourlyPrecipIn,Conditions,Clouds,dailyrainin,SolarRadiationWatts/m^2,SoftwareType,DateUTC
2013-03-23 00:12:00,32.0,25.0,-100.00,NW,319,5.0,8.0,74,-99.99,,,0.00,0.120000,,2013-03-23 07:12:00,
2013-03-23 01:12:00,31.0,23.0,-100.00,WNW,299,2.0,5.0,70,-99.99,,,0.00,0.120000,,2013-03-23 08:12:00,
2013-03-23 02:12:00,29.0,21.0,-100.00,ENE,67,3.0,5.0,72,-99.99,,,0.00,0.120000,,2013-03-23 09:12:00,
2013-03-23 03:12:00,27.0,20.0,-100.00,SSE,149,3.0,4.0,75,-99.99,,,0.00,0.120000,,2013-03-23 10:12:00,
2013-03-23 04:12:00,26.0,20.0,-100.00,SE,132,3.0,5.0,80,-99.99,,,0.00,0.120000,,2013-03-23 11:12:00,
2013-03-23 05:12:00,26.0,22.0,-100.00,SSE,148,4.0,6.0,82,-99.99,,,0.00,0.120000,,2013-03-23 12:12:00,
2013-03-23 06:12:00,25.0,21.0,-100.00,WSW,258,1.0,2.0,85,-99.99,,,0.00,0.120000,,2013-03-23 13:12:00,
2013-03-23 07:12:00,26.0,21.0,-100.00,SE,130,3.0,3.0,82,-99.99,,,0.00,0.000000,,2013-03-23 14:12:00,
2013-03-23 08:12:00,27.0,21.0,-100.00,East,100,4.0,5.0,80,-99.99,,,0.00,4.070000,,2013-03-23 15:12:00,
2013-03-23 09:12:00,28.0,22.0,-100.00,SW,233,2.0,3.0,76,-99.99,,,0.00,73.099998,,2013-03-23 16:12:00,
2013-03-23 10:12:00,31.0,23.0,-100.00,WSW,243,1.0,5.0,69,-99.99,,,0.00,216.169998,,2013-03-23 17:12:00,
2013-03-23 12:12:00,36.0,22.0,-100.00,ENE,70,3.0,6.0,57,-99.99,,,0.00,559.599976,,2013-03-23 19:12:00,
2013-03-23 13:12:00,38.0,23.0,-100.00,NW,326,4.0,9.0,53,-99.99,,,0.00,458.019989,,2013-03-23 20:12:00,
2013-03-23 14:12:00,39.0,22.0,-100.00,North,10,5.0,10.0,50,-99.99,,,0.00,550.070007,,2013-03-23 21:12:00,
2013-03-23 15:12:00,41.0,22.0,-100.00,North,8,4.0,9.0,46,-99.99,,,0.00,588.309998,,2013-03-23 22:12:00,
2013-03-23 16:12:00,42.0,21.0,-100.00,NE,45,3.0,7.0,42,-99.99,,,0.00,394.220001,,2013-03-23 23:12:00,
2013-03-23 17:12:00,43.0,20.0,-100.00,North,2,5.0,9.0,38,-99.99,,,0.00,534.150024,,2013-03-24 00:12:00,
2013-03-23 18:12:00,43.0,13.0,-100.00,NNE,26,5.0,10.0,28,-99.99,,,0.00,374.929993,,2013-03-24 01:12:00,
2013-03-23 19:12:00,43.0,16.0,-100.00,NNE,20,4.0,7.0,32,-99.99,,,0.00,182.699997,,2013-03-24 02:12:00,
2013-03-23 20:12:00,40.0,18.0,-100.00,NE,39,3.0,4.0,41,-99.99,,,0.00,14.990000,,2013-03-24 03:12:00,
2013-03-23 21:12:00,35.0,18.0,-100.00,NE,35,4.0,6.0,49,-99.99,,,0.00,0.000000,,2013-03-24 04:12:00,
2013-03-23 22:12:00,30.0,18.0,-100.00,NE,50,3.0,5.0,60,-99.99,,,0.00,0.000000,,2013-03-24 05:12:00,
2013-03-23 23:12:00,30.0,19.0,-100.00,NE,46,3.0,4.0,62,-99.99,,,0.00,0.120000,,2013-03-24 06:12:00,